Date String (YYYY-MM-DD hh:mm:ss) UTC,Instrument flags,Ambient pressure (hPa),Sample flow (lpm),Bypass flow (lpm),Sample temperature (°C),Ambient temperature (°C),ASC tube jacket temperature (°C),LED temperature (°C),Box temperature (°C),Sample RH (%),Span deviation,Mass concentration (μg/m³),Mass concentration (μg/m³),Mass concentration (μg/m³)
DateTimeUTC,F1_M11,P_M11,Q1_M11,Q2_M11,T1_M11,T2_M11,T3_M11,T4_M11,T5_M11,U1_M11,ZSPAN_M11,X0_M11,X2_M11,X1_M11
2022-08-28 10:00:00,,0820.9,4.99,0.00,30.0,28.6,00.0,38.8,31.8,16.1,0000.0,0010.86,0003.74,0003.31
2022-08-28 10:01:00,,0820.9,5.01,0.00,30.0,28.7,00.0,38.8,31.9,16.0,0000.0,0010.32,0003.73,0003.30
2022-08-28 10:02:00,,0820.9,5.01,0.00,30.0,28.7,00.0,38.8,31.9,16.0,0000.0,0009.23,0003.71,0003.30
2022-08-28 10:03:00,,0821.0,5.00,0.00,30.1,28.8,00.0,38.8,31.9,16.0,0000.0,0009.22,0003.73,0003.29
2022-08-28 10:04:00,,0821.0,5.01,0.00,30.1,28.8,00.0,38.8,31.9,16.0,0000.0,0008.70,0003.72,0003.28
2022-08-28 10:05:00,,0821.0,4.99,0.00,30.1,28.8,00.0,38.8,31.9,16.0,0000.0,0008.86,0003.74,0003.27
2022-08-28 10:06:00,,0821.0,5.00,0.00,30.1,28.9,00.0,38.9,31.9,15.9,0000.0,0008.77,0003.76,0003.26
2022-08-28 10:07:00,,0820.9,4.99,0.00,30.1,28.9,00.0,38.9,32.0,16.0,0000.0,0008.91,0003.80,0003.26
2022-08-28 10:08:00,,0821.0,5.00,0.00,30.1,29.0,00.0,38.9,32.0,16.0,0000.0,0008.85,0003.79,0003.26
2022-08-28 10:09:00,,0820.9,5.00,0.00,30.2,29.0,00.0,38.9,32.0,15.9,0000.0,0008.63,0003.78,0003.26
2022-08-28 10:10:00,,0820.9,5.00,0.00,30.2,29.0,00.0,38.9,32.0,15.8,0000.0,0008.25,0003.77,0003.26
2022-08-28 10:11:00,,0820.9,5.00,0.00,30.2,29.1,00.0,38.9,32.0,15.8,0000.0,0008.17,0003.76,0003.24
2022-08-28 10:12:00,,0820.9,5.01,0.00,30.2,29.1,00.0,38.9,32.1,15.8,0000.0,0008.17,0003.79,0003.23
2022-08-28 10:13:00,,0820.9,4.99,0.00,30.2,29.1,00.0,39.0,32.1,15.6,0000.0,0008.39,0003.80,0003.22
2022-08-28 10:14:00,,0820.9,4.99,0.00,30.2,29.2,00.0,39.0,32.1,15.7,0000.0,0008.66,0003.78,0003.22
2022-08-28 10:15:00,,0820.9,5.00,0.00,30.3,29.2,00.0,39.0,32.1,15.5,0000.0,0008.66,0003.79,0003.23
2022-08-28 10:16:00,,0820.9,5.00,0.00,30.3,29.1,00.0,39.0,32.1,15.6,0000.0,0008.50,0003.77,0003.24
2022-08-28 10:17:00,,0820.9,4.99,0.00,30.3,27.9,00.0,39.0,32.0,15.7,0000.0,0008.31,0003.79,0003.25
2022-08-28 10:18:00,,0820.9,5.00,0.00,30.2,27.3,00.0,39.0,32.0,15.7,0000.0,0008.27,0003.78,0003.25
2022-08-28 10:19:00,,0820.9,5.00,0.00,30.2,27.3,00.0,38.9,31.9,15.8,0000.0,0008.32,0003.80,0003.26
2022-08-28 10:20:00,,0820.9,5.00,0.00,30.1,27.6,00.0,38.9,31.7,15.9,0000.0,0008.34,0003.82,0003.26
2022-08-28 10:21:00,,0820.9,5.00,0.00,30.1,27.8,00.0,38.9,31.7,15.9,0000.0,0008.17,0003.81,0003.25
2022-08-28 10:22:00,,0820.9,5.00,0.00,30.1,28.0,00.0,38.9,31.7,15.9,0000.0,0009.17,0003.84,0003.26
2022-08-28 10:23:00,,0820.9,5.01,0.00,30.0,28.2,00.0,38.8,31.7,16.0,0000.0,0009.11,0003.82,0003.26
2022-08-28 10:24:00,,0820.9,5.00,0.00,30.0,28.3,00.0,38.8,31.7,16.0,0000.0,0009.01,0003.79,0003.26
2022-08-28 10:25:00,,0820.9,4.99,0.00,30.0,28.4,00.0,38.8,31.8,16.0,0000.0,0008.84,0003.77,0003.26
2022-08-28 10:26:00,,0820.9,5.01,0.00,30.0,28.5,00.0,38.8,31.9,16.0,0000.0,0008.76,0003.76,0003.26
2022-08-28 10:27:00,,0820.9,5.00,0.00,30.0,28.6,00.0,38.8,31.9,16.0,0000.0,0008.67,0003.75,0003.25
2022-08-28 10:28:00,,0820.9,5.01,0.00,30.1,28.7,00.0,38.8,31.9,16.1,0000.0,0009.28,0003.75,0003.24
2022-08-28 10:29:00,,0820.9,4.99,0.00,30.1,28.7,00.0,38.9,31.9,16.0,0000.0,0009.47,0003.75,0003.24
2022-08-28 10:30:00,,0820.9,4.99,0.00,30.1,28.8,00.0,38.9,31.9,16.1,0000.0,0009.55,0003.74,0003.24
2022-08-28 10:31:00,,0821.0,5.02,0.00,30.1,28.8,00.0,38.9,31.9,16.1,0000.0,0009.62,0003.75,0003.24
2022-08-28 10:32:00,,0821.0,4.99,0.00,30.1,28.9,00.0,38.9,31.9,16.1,0000.0,0009.75,0003.76,0003.25
2022-08-28 10:33:00,,0820.9,5.01,0.00,30.1,28.9,00.0,38.9,32.0,16.1,0000.0,0008.94,0003.73,0003.25
2022-08-28 10:34:00,,0820.9,4.99,0.00,30.1,29.0,00.0,38.9,32.0,16.0,0000.0,0008.75,0003.71,0003.24
2022-08-28 10:35:00,,0820.9,5.01,0.00,30.2,29.0,00.0,38.9,32.0,15.9,0000.0,0008.64,0003.73,0003.24
2022-08-28 10:36:00,,0821.0,4.99,0.00,30.2,29.0,00.0,38.9,32.0,15.9,0000.0,0008.37,0003.72,0003.24
2022-08-28 10:37:00,,0820.9,5.01,0.00,30.2,29.1,00.0,38.9,32.0,16.0,0000.0,0008.85,0003.75,0003.25
2022-08-28 10:38:00,,0820.9,4.99,0.00,30.2,29.1,00.0,39.0,32.1,15.9,0000.0,0009.41,0003.78,0003.25
2022-08-28 10:39:00,,0820.9,5.01,0.00,30.2,29.1,00.0,39.0,32.1,15.9,0000.0,0008.51,0003.77,0003.25
2022-08-28 10:40:00,,0820.9,4.99,0.00,30.3,29.1,00.0,39.0,32.1,15.9,0000.0,0008.42,0003.79,0003.25
2022-08-28 10:41:00,,0820.9,5.01,0.00,30.3,29.2,00.0,39.0,32.1,15.9,0000.0,0008.33,0003.79,0003.24
2022-08-28 10:42:00,,0821.0,4.99,0.00,30.3,29.1,00.0,39.0,32.1,15.9,0000.0,0008.38,0003.78,0003.24
2022-08-28 10:43:00,,0821.0,5.01,0.00,30.3,28.0,00.0,39.0,32.0,15.9,0000.0,0008.49,0003.79,0003.24
2022-08-28 10:44:00,,0821.0,4.99,0.00,30.3,27.2,00.0,39.0,32.0,15.9,0000.0,0008.48,0003.80,0003.24
2022-08-28 10:45:00,,0820.9,5.01,0.00,30.2,27.2,00.0,38.9,31.9,16.0,0000.0,0009.13,0003.82,0003.25
2022-08-28 10:46:00,,0820.9,5.00,0.00,30.1,27.5,00.0,38.9,31.7,16.1,0000.0,0009.38,0003.82,0003.25
2022-08-28 10:47:00,,0820.9,4.99,0.00,30.1,27.7,00.0,38.9,31.7,16.1,0000.0,0009.49,0003.82,0003.25
2022-08-28 10:48:00,,0820.9,5.01,0.00,30.0,27.9,00.0,38.9,31.7,16.2,0000.0,0009.23,0003.80,0003.24
2022-08-28 10:49:00,,0820.9,4.99,0.00,30.0,28.1,00.0,38.9,31.8,16.2,0000.0,0008.72,0003.78,0003.24
2022-08-28 10:50:00,,0821.0,5.01,0.00,30.0,28.3,00.0,38.8,31.8,16.3,0000.0,0008.55,0003.77,0003.24
2022-08-28 10:51:00,,0820.9,5.00,0.00,30.0,28.4,00.0,38.8,31.8,16.3,0000.0,0008.34,0003.75,0003.23
2022-08-28 10:52:00,,0820.9,5.00,0.00,30.0,28.5,00.0,38.8,31.8,16.4,0000.0,0008.65,0003.74,0003.22
2022-08-28 10:53:00,,0820.9,4.99,0.00,30.0,28.6,00.0,38.8,31.8,16.4,0000.0,0009.07,0003.74,0003.22
2022-08-28 10:54:00,,0820.8,5.01,0.00,30.0,28.7,00.0,38.8,31.9,16.4,0000.0,0008.81,0003.74,0003.21
2022-08-28 10:55:00,,0820.9,4.99,0.00,30.1,28.7,00.0,38.9,31.9,16.3,0000.0,0008.80,0003.75,0003.20
2022-08-28 10:56:00,,0821.0,5.01,0.00,30.1,28.8,00.0,38.9,31.9,16.3,0000.0,0008.41,0003.76,0003.20
2022-08-28 10:57:00,,0820.9,5.00,0.00,30.1,28.8,00.0,38.9,31.9,16.3,0000.0,0008.29,0003.77,0003.20
2022-08-28 10:58:00,,0820.9,5.00,0.00,30.1,28.8,00.0,38.9,31.9,16.3,0000.0,0008.41,0003.79,0003.21
2022-08-28 10:59:00,,0821.0,4.99,0.00,30.1,28.9,00.0,38.9,31.9,16.3,0000.0,0009.05,0003.81,0003.21
